Time,TemperatureF,DewpointF,PressureIn,WindDirection,WindDirectionDegrees,WindSpeedMPH,WindSpeedGustMPH,Humidity,HourlyPrecipIn,Conditions,Clouds,dailyrainin,SoftwareType,DateUTC
2013-02-01 00:00:00,46.5,33.8,30.06,West,267,16.0,18.0,61,0.00,,---,0.00,VWS V14.01,2013-02-01 05:00:00,
2013-02-01 00:01:00,46.5,33.4,30.06,West,281,13.0,18.0,60,0.00,,---,0.00,VWS V14.01,2013-02-01 05:01:00,
2013-02-01 00:06:00,46.4,33.3,30.07,West,271,15.0,18.0,60,0.00,,---,0.00,VWS V14.01,2013-02-01 05:06:00,
2013-02-01 00:11:00,46.4,33.7,30.08,West,281,14.0,18.0,61,0.00,,---,0.00,VWS V14.01,2013-02-01 05:11:00,
2013-02-01 00:16:00,46.3,33.2,30.08,WNW,286,16.0,18.0,60,0.00,,---,0.00,VWS V14.01,2013-02-01 05:16:00,
2013-02-01 00:21:00,46.2,33.1,30.08,West,281,17.0,18.0,60,0.00,,---,0.00,VWS V14.01,2013-02-01 05:21:00,
2013-02-01 00:26:00,46.0,32.1,30.08,WNW,283,18.0,20.0,58,0.00,,---,0.00,VWS V14.01,2013-02-01 05:26:00,
2013-02-01 00:31:00,46.0,32.1,30.08,WNW,292,13.0,19.0,58,0.00,,---,0.00,VWS V14.01,2013-02-01 05:31:00,
2013-02-01 00:36:00,46.1,32.6,30.08,WNW,286,19.0,19.0,59,0.00,,---,0.00,VWS V14.01,2013-02-01 05:36:00,
2013-02-01 00:41:00,46.2,32.7,30.08,West,269,18.0,21.0,59,0.00,,---,0.00,VWS V14.01,2013-02-01 05:41:00,
2013-02-01 00:46:00,46.1,31.7,30.08,West,279,17.0,22.0,57,0.00,,---,0.00,VWS V14.01,2013-02-01 05:46:00,
2013-02-01 00:51:00,46.1,33.0,30.08,West,279,15.0,22.0,60,0.00,,---,0.00,VWS V14.01,2013-02-01 05:51:00,
2013-02-01 00:56:00,46.0,31.2,30.08,WNW,284,22.0,22.0,56,0.00,,---,0.00,VWS V14.01,2013-02-01 05:56:00,
2013-02-01 01:01:00,45.9,32.0,30.08,West,279,17.0,22.0,58,0.00,,---,0.00,VWS V14.01,2013-02-01 06:01:00,
2013-02-01 01:06:00,45.9,31.1,30.08,WNW,290,17.0,24.0,56,0.00,,---,0.00,VWS V14.01,2013-02-01 06:06:00,
2013-02-01 01:11:00,45.9,32.8,30.08,West,276,20.0,24.0,60,0.00,,---,0.00,VWS V14.01,2013-02-01 06:11:00,
2013-02-01 01:16:00,45.8,31.9,30.08,WNW,293,17.0,24.0,58,0.00,,---,0.00,VWS V14.01,2013-02-01 06:16:00,
2013-02-01 01:21:00,45.8,32.3,30.08,WNW,288,17.0,24.0,59,0.00,,---,0.00,VWS V14.01,2013-02-01 06:21:00,
2013-02-01 01:26:00,45.7,32.6,30.08,WNW,292,19.0,24.0,60,0.00,,---,0.00,VWS V14.01,2013-02-01 06:26:00,
2013-02-01 01:32:00,45.6,31.7,30.09,WNW,290,18.0,25.0,58,0.00,,---,0.00,VWS V14.01,2013-02-01 06:32:00,
2013-02-01 01:37:00,45.6,32.1,30.09,WNW,285,22.0,25.0,59,0.00,,---,0.00,VWS V14.01,2013-02-01 06:37:00,
2013-02-01 01:42:00,45.5,32.4,30.09,West,277,19.0,25.0,60,0.00,,---,0.00,VWS V14.01,2013-02-01 06:42:00,
2013-02-01 01:47:00,45.3,31.8,30.09,WNW,292,15.0,25.0,59,0.00,,---,0.00,VWS V14.01,2013-02-01 06:47:00,
2013-02-01 01:52:00,45.2,31.3,30.09,WNW,286,16.0,25.0,58,0.00,,---,0.00,VWS V14.01,2013-02-01 06:52:00,
2013-02-01 01:57:00,45.2,32.6,30.09,WNW,290,14.0,25.0,61,0.00,,---,0.00,VWS V14.01,2013-02-01 06:57:00,
2013-02-01 02:02:00,45.1,32.1,30.08,West,273,16.0,19.0,60,0.00,,---,0.00,VWS V14.01,2013-02-01 07:02:00,
2013-02-01 02:07:00,45.0,32.0,30.08,West,279,17.0,19.0,60,0.00,,---,0.00,VWS V14.01,2013-02-01 07:07:00,
2013-02-01 02:12:00,45.2,33.0,30.08,WNW,292,14.0,20.0,62,0.00,,---,0.00,VWS V14.01,2013-02-01 07:12:00,
2013-02-01 02:17:00,45.0,31.5,30.08,West,273,14.0,20.0,59,0.00,,---,0.00,VWS V14.01,2013-02-01 07:17:00,
2013-02-01 02:22:00,44.9,31.9,30.08,WNW,286,11.0,20.0,60,0.00,,---,0.00,VWS V14.01,2013-02-01 07:22:00,
2013-02-01 02:27:00,44.9,31.9,30.07,West,278,15.0,20.0,60,0.00,,---,0.00,VWS V14.01,2013-02-01 07:27:00,
2013-02-01 02:32:00,44.8,32.2,30.07,WNW,284,15.0,19.0,61,0.00,,---,0.00,VWS V14.01,2013-02-01 07:32:00,
2013-02-01 02:37:00,44.9,32.7,30.06,West,281,15.0,19.0,62,0.00,,---,0.00,VWS V14.01,2013-02-01 07:37:00,
2013-02-01 02:42:00,44.9,32.3,30.06,West,273,17.0,20.0,61,0.00,,---,0.00,VWS V14.01,2013-02-01 07:42:00,
2013-02-01 02:47:00,44.7,32.1,30.06,West,264,15.0,20.0,61,0.00,,---,0.00,VWS V14.01,2013-02-01 07:47:00,
2013-02-01 02:52:00,44.6,33.2,30.06,West,269,14.0,20.0,64,0.00,,---,0.00,VWS V14.01,2013-02-01 07:52:00,
2013-02-01 02:57:00,44.5,32.7,30.06,WNW,282,15.0,20.0,63,0.00,,---,0.00,VWS V14.01,2013-02-01 07:57:00,
2013-02-01 03:02:00,44.5,32.7,30.06,West,272,16.0,19.0,63,0.00,,---,0.00,VWS V14.01,2013-02-01 08:02:00,
2013-02-01 03:07:00,44.5,32.7,30.06,West,271,15.0,19.0,63,0.00,,---,0.00,VWS V14.01,2013-02-01 08:07:00,
2013-02-01 03:12:00,44.4,31.8,30.06,WNW,285,13.0,19.0,61,0.00,,---,0.00,VWS V14.01,2013-02-01 08:12:00,
2013-02-01 03:17:00,44.5,32.3,30.06,West,281,14.0,19.0,62,0.00,,---,0.00,VWS V14.01,2013-02-01 08:17:00,
2013-02-01 03:22:00,44.3,31.7,30.06,WNW,283,15.0,19.0,61,0.00,,---,0.00,VWS V14.01,2013-02-01 08:22:00,
2013-02-01 03:27:00,44.2,32.4,30.06,WNW,284,13.0,19.0,63,0.00,,---,0.00,VWS V14.01,2013-02-01 08:27:00,
2013-02-01 03:32:00,44.2,31.6,30.06,WNW,285,13.0,18.0,61,0.00,,---,0.00,VWS V14.01,2013-02-01 08:32:00,
2013-02-01 03:37:00,44.2,31.6,30.06,West,267,14.0,19.0,61,0.00,,---,0.00,VWS V14.01,2013-02-01 08:37:00,
2013-02-01 03:42:00,44.3,32.1,30.06,WNW,286,15.0,20.0,62,0.00,,---,0.00,VWS V14.01,2013-02-01 08:42:00,
2013-02-01 03:47:00,44.5,31.9,30.06,WNW,288,15.0,21.0,61,0.00,,---,0.00,VWS V14.01,2013-02-01 08:47:00,
2013-02-01 03:53:00,44.7,32.1,30.06,West,277,14.0,23.0,61,0.00,,---,0.00,VWS V14.01,2013-02-01 08:53:00,
2013-02-01 03:58:00,44.9,33.1,30.06,West,270,20.0,23.0,63,0.00,,---,0.00,VWS V14.01,2013-02-01 08:58:00,
2013-02-01 04:03:00,44.9,32.3,30.06,West,273,17.0,24.0,61,0.00,,---,0.00,VWS V14.01,2013-02-01 09:03:00,
2013-02-01 04:08:00,44.9,32.3,30.05,West,277,18.0,24.0,61,0.00,,---,0.00,VWS V14.01,2013-02-01 09:08:00,
2013-02-01 04:13:00,45.0,32.0,30.05,WNW,293,18.0,24.0,60,0.00,,---,0.00,VWS V14.01,2013-02-01 09:13:00,
2013-02-01 04:18:00,44.8,33.0,30.05,West,271,15.0,24.0,63,0.00,,---,0.00,VWS V14.01,2013-02-01 09:18:00,
2013-02-01 04:23:00,44.8,33.4,30.06,West,269,19.0,24.0,64,0.00,,---,0.00,VWS V14.01,2013-02-01 09:23:00,
2013-02-01 04:28:00,44.6,32.4,30.06,WNW,284,16.0,18.0,62,0.00,,---,0.00,VWS V14.01,2013-02-01 09:28:00,
2013-02-01 04:33:00,44.6,31.6,30.06,West,276,15.0,22.0,60,0.00,,---,0.00,VWS V14.01,2013-02-01 09:33:00,
2013-02-01 04:38:00,44.8,33.0,30.05,West,274,19.0,24.0,63,0.00,,---,0.00,VWS V14.01,2013-02-01 09:38:00,
2013-02-01 04:43:00,44.8,32.2,30.06,West,270,22.0,24.0,61,0.00,,---,0.00,VWS V14.01,2013-02-01 09:43:00,
2013-02-01 04:48:00,44.7,32.5,30.05,West,278,20.0,24.0,62,0.00,,---,0.00,VWS V14.01,2013-02-01 09:48:00,
2013-02-01 04:53:00,44.8,31.8,30.05,WNW,282,18.0,25.0,60,0.00,,---,0.00,VWS V14.01,2013-02-01 09:53:00,
2013-02-01 04:58:00,44.8,31.8,30.05,West,279,20.0,22.0,60,0.00,,---,0.00,VWS V14.01,2013-02-01 09:58:00,
2013-02-01 05:03:00,44.9,32.3,30.05,West,273,22.0,25.0,61,0.00,,---,0.00,VWS V14.01,2013-02-01 10:03:00,
2013-02-01 05:08:00,45.0,32.4,30.05,WNW,284,16.0,25.0,61,0.00,,---,0.00,VWS V14.01,2013-02-01 10:08:00,
2013-02-01 05:13:00,45.0,32.4,30.05,West,277,15.0,25.0,61,0.00,,---,0.00,VWS V14.01,2013-02-01 10:13:00,
2013-02-01 05:18:00,45.0,32.0,30.05,West,263,16.0,25.0,60,0.00,,---,0.00,VWS V14.01,2013-02-01 10:18:00,
2013-02-01 05:23:00,45.0,32.8,30.05,WNW,282,20.0,25.0,62,0.00,,---,0.00,VWS V14.01,2013-02-01 10:23:00,
2013-02-01 05:28:00,45.1,33.3,30.05,WNW,283,15.0,15.0,63,0.00,,---,0.00,VWS V14.01,2013-02-01 10:28:00,
2013-02-01 05:33:00,45.2,33.4,30.05,West,273,14.0,23.0,63,0.00,,---,0.00,VWS V14.01,2013-02-01 10:33:00,
2013-02-01 05:38:00,45.3,33.1,30.05,West,281,17.0,23.0,62,0.00,,---,0.00,VWS V14.01,2013-02-01 10:38:00,
2013-02-01 05:43:00,45.6,33.8,30.04,WSW,250,21.0,23.0,63,0.00,,---,0.00,VWS V14.01,2013-02-01 10:43:00,
2013-02-01 05:48:00,45.8,33.1,30.04,West,268,16.0,24.0,61,0.00,,---,0.00,VWS V14.01,2013-02-01 10:48:00,
2013-02-01 05:53:00,46.0,33.3,30.04,West,267,24.0,24.0,61,0.00,,---,0.00,VWS V14.01,2013-02-01 10:53:00,
2013-02-01 05:58:00,46.1,34.6,30.04,West,272,15.0,21.0,64,0.00,,---,0.00,VWS V14.01,2013-02-01 10:58:00,
2013-02-01 06:03:00,46.1,33.4,30.04,West,261,18.0,23.0,61,0.00,,---,0.00,VWS V14.01,2013-02-01 11:03:00,
2013-02-01 06:08:00,46.3,34.4,30.04,West,261,15.0,24.0,63,0.00,,---,0.00,VWS V14.01,2013-02-01 11:08:00,
2013-02-01 06:13:00,46.3,32.3,30.04,WSW,242,14.0,25.0,58,0.00,,---,0.00,VWS V14.01,2013-02-01 11:13:00,
2013-02-01 06:18:00,46.4,33.7,30.04,WSW,240,11.0,27.0,61,0.00,,---,0.00,VWS V14.01,2013-02-01 11:18:00,
2013-02-01 06:23:00,46.0,30.3,30.03,SW,234,10.0,27.0,54,0.00,,---,0.00,VWS V14.01,2013-02-01 11:23:00,
2013-02-01 06:28:00,45.8,30.6,30.03,West,271,16.0,23.0,55,0.00,,---,0.00,VWS V14.01,2013-02-01 11:28:00,
2013-02-01 06:33:00,45.6,29.9,30.04,West,271,15.0,23.0,54,0.00,,---,0.00,VWS V14.01,2013-02-01 11:33:00,
2013-02-01 06:38:00,45.5,30.3,30.03,WSW,253,14.0,23.0,55,0.00,,---,0.00,VWS V14.01,2013-02-01 11:38:00,
2013-02-01 06:43:00,45.6,30.4,30.03,WSW,246,20.0,25.0,55,0.00,,---,0.00,VWS V14.01,2013-02-01 11:43:00,
2013-02-01 06:48:00,45.9,30.2,30.03,West,273,11.0,25.0,54,0.00,,---,0.00,VWS V14.01,2013-02-01 11:48:00,
2013-02-01 06:53:00,46.0,30.3,30.02,West,273,18.0,26.0,54,0.00,,---,0.00,VWS V14.01,2013-02-01 11:53:00,
2013-02-01 06:58:00,46.0,30.8,30.03,WSW,257,11.0,25.0,55,0.00,,---,0.00,VWS V14.01,2013-02-01 11:58:00,
2013-02-01 07:04:00,45.9,30.7,30.03,West,263,21.0,25.0,55,0.00,,---,0.00,VWS V14.01,2013-02-01 12:04:00,
2013-02-01 07:09:00,46.1,31.3,30.03,West,270,13.0,25.0,56,0.00,,---,0.00,VWS V14.01,2013-02-01 12:09:00,
2013-02-01 07:14:00,46.4,32.4,30.04,WNW,282,21.0,25.0,58,0.00,,---,0.00,VWS V14.01,2013-02-01 12:14:00,
2013-02-01 07:19:00,46.6,34.7,30.04,West,274,14.0,25.0,63,0.00,,---,0.00,VWS V14.01,2013-02-01 12:19:00,
2013-02-01 07:24:00,46.5,32.1,30.04,WSW,258,15.0,25.0,57,0.00,,---,0.00,VWS V14.01,2013-02-01 12:24:00,
2013-02-01 07:29:00,46.6,32.2,30.04,West,272,14.0,23.0,57,0.00,,---,0.00,VWS V14.01,2013-02-01 12:29:00,
2013-02-01 07:34:00,46.5,32.1,30.04,West,281,11.0,23.0,57,0.00,,---,0.00,VWS V14.01,2013-02-01 12:34:00,
2013-02-01 07:39:00,46.7,31.9,30.04,WSW,244,19.0,26.0,56,0.00,,---,0.00,VWS V14.01,2013-02-01 12:39:00,
2013-02-01 07:44:00,47.1,33.5,30.04,West,275,19.0,29.0,59,0.00,,---,0.00,VWS V14.01,2013-02-01 12:44:00,
2013-02-01 07:49:00,47.3,33.3,30.04,West,270,20.0,29.0,58,0.00,,---,0.00,VWS V14.01,2013-02-01 12:49:00,
2013-02-01 07:54:00,47.6,33.1,30.04,West,261,18.0,29.0,57,0.00,,---,0.00,VWS V14.01,2013-02-01 12:54:00,
2013-02-01 07:59:00,47.9,34.7,30.04,West,269,21.0,28.0,60,0.00,,---,0.00,VWS V14.01,2013-02-01 12:59:00,
2013-02-01 08:04:00,47.9,33.8,30.04,West,267,20.0,28.0,58,0.00,,---,0.00,VWS V14.01,2013-02-01 13:04:00,
2013-02-01 08:09:00,48.2,34.6,30.04,West,264,19.0,28.0,59,0.00,,---,0.00,VWS V14.01,2013-02-01 13:09:00,
2013-02-01 08:14:00,48.5,32.6,30.04,West,270,25.0,33.0,54,0.00,,---,0.00,VWS V14.01,2013-02-01 13:14:00,
2013-02-01 08:19:00,48.7,33.7,30.04,West,272,25.0,34.0,56,0.00,,---,0.00,VWS V14.01,2013-02-01 13:19:00,
2013-02-01 08:24:00,48.8,35.1,30.04,West,273,23.0,34.0,59,0.00,,---,0.00,VWS V14.01,2013-02-01 13:24:00,
2013-02-01 08:29:00,49.0,33.5,30.04,WNW,286,28.0,32.0,55,0.00,,---,0.00,VWS V14.01,2013-02-01 13:29:00,
2013-02-01 08:34:00,49.4,33.5,30.03,West,281,30.0,33.0,54,0.00,,---,0.00,VWS V14.01,2013-02-01 13:34:00,
2013-02-01 08:39:00,49.7,34.7,30.04,West,277,26.0,34.0,56,0.00,,---,0.00,VWS V14.01,2013-02-01 13:39:00,
2013-02-01 08:44:00,49.9,33.0,30.04,West,273,31.0,35.0,52,0.00,,---,0.00,VWS V14.01,2013-02-01 13:44:00,
2013-02-01 08:49:00,50.1,35.0,30.04,West,273,25.0,37.0,56,0.00,,---,0.00,VWS V14.01,2013-02-01 13:49:00,
2013-02-01 08:54:00,50.3,33.4,30.04,West,273,33.0,37.0,52,0.00,,---,0.00,VWS V14.01,2013-02-01 13:54:00,
2013-02-01 08:59:00,50.5,34.0,30.04,West,277,31.0,40.0,53,0.00,,---,0.00,VWS V14.01,2013-02-01 13:59:00,
2013-02-01 09:04:00,50.6,32.7,30.05,WNW,289,31.0,40.0,50,0.00,,---,0.00,VWS V14.01,2013-02-01 14:04:00,
2013-02-01 09:09:00,50.6,33.2,30.05,WNW,287,25.0,40.0,51,0.00,,---,0.00,VWS V14.01,2013-02-01 14:09:00,
2013-02-01 09:14:00,50.6,34.1,30.05,WNW,284,29.0,40.0,53,0.00,,---,0.00,VWS V14.01,2013-02-01 14:14:00,
2013-02-01 09:19:00,50.8,34.8,30.05,WNW,288,31.0,40.0,54,0.00,,---,0.00,VWS V14.01,2013-02-01 14:19:00,
2013-02-01 09:24:00,50.9,33.4,30.05,WNW,301,23.0,40.0,51,0.00,,---,0.00,VWS V14.01,2013-02-01 14:24:00,
2013-02-01 09:29:00,50.9,33.4,30.05,WNW,292,33.0,36.0,51,0.00,,---,0.00,VWS V14.01,2013-02-01 14:29:00,
2013-02-01 09:34:00,51.0,33.5,30.05,WNW,294,28.0,36.0,51,0.00,,---,0.00,VWS V14.01,2013-02-01 14:34:00,
2013-02-01 09:40:00,51.1,33.1,30.05,NW,306,39.0,40.0,50,0.00,,---,0.00,VWS V14.01,2013-02-01 14:40:00,
2013-02-01 09:45:00,51.0,33.5,30.06,WNW,298,33.0,40.0,51,0.00,,---,0.00,VWS V14.01,2013-02-01 14:45:00,
2013-02-01 09:50:00,50.9,33.4,30.06,WNW,296,31.0,41.0,51,0.00,,---,0.00,VWS V14.01,2013-02-01 14:50:00,
2013-02-01 09:55:00,51.0,33.5,30.06,WNW,295,33.0,41.0,51,0.00,,---,0.00,VWS V14.01,2013-02-01 14:55:00,
2013-02-01 10:00:00,51.0,34.5,30.06,West,279,30.0,37.0,53,0.00,,---,0.00,VWS V14.01,2013-02-01 15:00:00,
2013-02-01 10:05:00,51.1,33.1,30.06,WNW,301,28.0,37.0,50,0.00,,---,0.00,VWS V14.01,2013-02-01 15:05:00,
2013-02-01 10:10:00,51.3,35.2,30.06,WNW,299,22.0,38.0,54,0.00,,---,0.00,VWS V14.01,2013-02-01 15:10:00,
2013-02-01 10:15:00,51.5,33.5,30.06,WNW,293,36.0,40.0,50,0.00,,---,0.00,VWS V14.01,2013-02-01 15:15:00,
2013-02-01 10:20:00,51.7,35.1,30.06,WNW,302,29.0,40.0,53,0.00,,---,0.00,VWS V14.01,2013-02-01 15:20:00,
2013-02-01 10:25:00,51.7,33.7,30.07,NW,312,26.0,42.0,50,0.00,,---,0.00,VWS V14.01,2013-02-01 15:25:00,
2013-02-01 10:30:00,52.0,34.5,30.07,WNW,296,33.0,33.0,51,0.00,,---,0.00,VWS V14.01,2013-02-01 15:30:00,
2013-02-01 10:35:00,52.1,34.5,30.07,NW,315,32.0,37.0,51,0.00,,---,0.00,VWS V14.01,2013-02-01 15:35:00,
2013-02-01 10:40:00,51.7,34.2,30.08,WNW,302,30.0,37.0,51,0.00,,---,0.00,VWS V14.01,2013-02-01 15:40:00,
2013-02-01 10:45:00,52.0,34.9,30.08,NW,304,22.0,37.0,52,0.00,,---,0.00,VWS V14.01,2013-02-01 15:45:00,
2013-02-01 10:50:00,52.0,34.0,30.08,NW,309,30.0,40.0,50,0.00,,---,0.00,VWS V14.01,2013-02-01 15:50:00,
2013-02-01 10:55:00,51.8,32.8,30.07,NW,326,35.0,40.0,48,0.00,,---,0.00,VWS V14.01,2013-02-01 15:55:00,
2013-02-01 11:00:00,51.8,33.8,30.08,NW,314,32.0,37.0,50,0.00,,---,0.00,VWS V14.01,2013-02-01 16:00:00,
2013-02-01 11:05:00,51.6,34.6,30.08,NW,311,29.0,37.0,52,0.00,,---,0.00,VWS V14.01,2013-02-01 16:05:00,
2013-02-01 11:10:00,51.9,33.9,30.09,NW,312,18.0,37.0,50,0.00,,---,0.00,VWS V14.01,2013-02-01 16:10:00,
2013-02-01 11:15:00,52.0,34.5,30.08,NW,309,25.0,37.0,51,0.00,,---,0.00,VWS V14.01,2013-02-01 16:15:00,
2013-02-01 11:20:00,52.1,34.0,30.09,NW,323,28.0,37.0,50,0.00,,---,0.00,VWS V14.01,2013-02-01 16:20:00,
2013-02-01 11:25:00,51.8,34.8,30.09,NW,306,24.0,37.0,52,0.00,,---,0.00,VWS V14.01,2013-02-01 16:25:00,
2013-02-01 11:30:00,51.7,34.2,30.09,NW,313,29.0,34.0,51,0.00,,---,0.00,VWS V14.01,2013-02-01 16:30:00,
2013-02-01 11:35:00,51.6,34.1,30.09,NW,315,20.0,34.0,51,0.00,,---,0.00,VWS V14.01,2013-02-01 16:35:00,
2013-02-01 11:40:00,51.9,33.4,30.09,NNW,329,37.0,38.0,49,0.00,,---,0.00,VWS V14.01,2013-02-01 16:40:00,
2013-02-01 11:45:00,51.2,32.7,30.10,NW,317,28.0,40.0,49,0.00,,---,0.00,VWS V14.01,2013-02-01 16:45:00,
2013-02-01 11:50:00,50.9,32.4,30.10,NW,319,35.0,40.0,49,0.00,,---,0.00,VWS V14.01,2013-02-01 16:50:00,
2013-02-01 11:55:00,50.9,33.4,30.10,North,350,31.0,40.0,51,0.00,,---,0.00,VWS V14.01,2013-02-01 16:55:00,
2013-02-01 12:00:00,50.0,34.0,30.10,North,355,26.0,31.0,54,0.00,,---,0.00,VWS V14.01,2013-02-01 17:00:00,
2013-02-01 12:05:00,49.2,34.2,30.11,North,351,31.0,33.0,56,0.00,,---,0.00,VWS V14.01,2013-02-01 17:05:00,
2013-02-01 12:10:00,48.8,32.4,30.12,NNW,340,28.0,34.0,53,0.00,,---,0.00,VWS V14.01,2013-02-01 17:10:00,
2013-02-01 12:15:00,48.5,34.0,30.12,NNW,344,28.0,34.0,57,0.00,,---,0.00,VWS V14.01,2013-02-01 17:15:00,
2013-02-01 12:20:00,48.3,33.3,30.12,North,355,28.0,34.0,56,0.00,,---,0.00,VWS V14.01,2013-02-01 17:20:00,
2013-02-01 12:25:00,48.7,33.7,30.12,NNW,340,34.0,35.0,56,0.00,,---,0.00,VWS V14.01,2013-02-01 17:25:00,
2013-02-01 12:30:00,48.2,31.4,30.13,NNW,348,24.0,32.0,52,0.00,,---,0.00,VWS V14.01,2013-02-01 17:30:00,
2013-02-01 12:35:00,48.1,32.7,30.13,NNW,348,27.0,33.0,55,0.00,,---,0.00,VWS V14.01,2013-02-01 17:35:00,
2013-02-01 12:40:00,48.8,32.0,30.13,North,349,21.0,34.0,52,0.00,,---,0.00,VWS V14.01,2013-02-01 17:40:00,
2013-02-01 12:45:00,49.1,31.3,30.13,North,355,31.0,40.0,50,0.00,,---,0.00,VWS V14.01,2013-02-01 17:45:00,
2013-02-01 12:50:00,48.2,28.4,30.14,NNW,348,28.0,40.0,46,0.00,,---,0.00,VWS V14.01,2013-02-01 17:50:00,
2013-02-01 12:55:00,47.6,26.2,30.14,NNW,346,25.0,40.0,43,0.00,,---,0.00,VWS V14.01,2013-02-01 17:55:00,
2013-02-01 13:00:00,48.2,26.8,30.14,NW,315,28.0,32.0,43,0.00,,---,0.00,VWS V14.01,2013-02-01 18:00:00,
2013-02-01 13:05:00,48.0,26.0,30.14,NNW,348,25.0,33.0,42,0.00,,---,0.00,VWS V14.01,2013-02-01 18:05:00,
2013-02-01 13:10:00,47.8,22.8,30.15,NW,318,29.0,33.0,37,0.00,,---,0.00,VWS V14.01,2013-02-01 18:10:00,
2013-02-01 13:15:00,47.8,22.2,30.15,NNW,345,27.0,36.0,36,0.00,,---,0.00,VWS V14.01,2013-02-01 18:15:00,
2013-02-01 13:21:00,47.8,22.8,30.15,NNW,340,21.0,36.0,37,0.00,,---,0.00,VWS V14.01,2013-02-01 18:21:00,
2013-02-01 13:26:00,47.5,23.2,30.15,North,355,26.0,36.0,38,0.00,,---,0.00,VWS V14.01,2013-02-01 18:26:00,
2013-02-01 13:31:00,47.1,24.6,30.15,North,355,21.0,29.0,41,0.00,,---,0.00,VWS V14.01,2013-02-01 18:31:00,
2013-02-01 13:36:00,47.3,23.6,30.15,North,350,28.0,32.0,39,0.00,,---,0.00,VWS V14.01,2013-02-01 18:36:00,
2013-02-01 13:41:00,47.2,24.7,30.15,NNW,344,22.0,32.0,41,0.00,,---,0.00,VWS V14.01,2013-02-01 18:41:00,
2013-02-01 13:46:00,47.1,23.4,30.16,North,351,19.0,32.0,39,0.00,,---,0.00,VWS V14.01,2013-02-01 18:46:00,
2013-02-01 13:51:00,47.3,26.0,30.15,North,360,25.0,32.0,43,0.00,,---,0.00,VWS V14.01,2013-02-01 18:51:00,
2013-02-01 13:56:00,47.0,22.7,30.15,NNW,333,28.0,32.0,38,0.00,,---,0.00,VWS V14.01,2013-02-01 18:56:00,
2013-02-01 14:01:00,47.0,21.5,30.15,North,360,22.0,30.0,36,0.00,,---,0.00,VWS V14.01,2013-02-01 19:01:00,
2013-02-01 14:06:00,47.2,22.9,30.15,North,355,23.0,30.0,38,0.00,,---,0.00,VWS V14.01,2013-02-01 19:06:00,
2013-02-01 14:11:00,47.5,23.2,30.15,NW,319,27.0,32.0,38,0.00,,---,0.00,VWS V14.01,2013-02-01 19:11:00,
2013-02-01 14:16:00,47.4,21.8,30.15,North,355,27.0,32.0,36,0.00,,---,0.00,VWS V14.01,2013-02-01 19:16:00,
2013-02-01 14:21:00,47.2,19.6,30.16,NNW,337,27.0,32.0,33,0.00,,---,0.00,VWS V14.01,2013-02-01 19:21:00,
2013-02-01 14:26:00,47.4,21.8,30.16,North,355,23.0,32.0,36,0.00,,---,0.00,VWS V14.01,2013-02-01 19:26:00,
2013-02-01 14:31:00,47.0,19.4,30.16,North,355,22.0,30.0,33,0.00,,---,0.00,VWS V14.01,2013-02-01 19:31:00,
2013-02-01 14:36:00,47.2,19.6,30.16,North,350,27.0,36.0,33,0.00,,---,0.00,VWS V14.01,2013-02-01 19:36:00,
2013-02-01 14:41:00,47.1,20.2,30.17,North,350,24.0,36.0,34,0.00,,---,0.00,VWS V14.01,2013-02-01 19:41:00,
2013-02-01 14:46:00,46.8,17.0,30.17,NNW,344,24.0,36.0,30,0.00,,---,0.00,VWS V14.01,2013-02-01 19:46:00,
2013-02-01 14:51:00,46.8,17.8,30.17,North,5,20.0,36.0,31,0.00,,---,0.00,VWS V14.01,2013-02-01 19:51:00,
2013-02-01 14:56:00,46.5,17.5,30.17,North,355,22.0,36.0,31,0.00,,---,0.00,VWS V14.01,2013-02-01 19:56:00,
2013-02-01 15:01:00,46.3,17.3,30.18,NNW,332,16.0,29.0,31,0.00,,---,0.00,VWS V14.01,2013-02-01 20:01:00,
2013-02-01 15:06:00,46.4,18.2,30.18,NNW,347,16.0,29.0,32,0.00,,---,0.00,VWS V14.01,2013-02-01 20:06:00,
2013-02-01 15:11:00,46.4,15.9,30.19,North,355,18.0,29.0,29,0.00,,---,0.00,VWS V14.01,2013-02-01 20:11:00,
2013-02-01 15:16:00,46.0,18.5,30.18,North,355,21.0,30.0,33,0.00,,---,0.00,VWS V14.01,2013-02-01 20:16:00,
2013-02-01 15:21:00,46.0,17.8,30.18,WNW,302,24.0,31.0,32,0.00,,---,0.00,VWS V14.01,2013-02-01 20:21:00,
2013-02-01 15:26:00,45.7,14.5,30.19,North,360,20.0,34.0,28,0.00,,---,0.00,VWS V14.01,2013-02-01 20:26:00,
2013-02-01 15:31:00,45.9,20.5,30.19,NNW,348,17.0,33.0,36,0.00,,---,0.00,VWS V14.01,2013-02-01 20:31:00,
2013-02-01 15:36:00,46.0,15.5,30.19,NNW,342,20.0,33.0,29,0.00,,---,0.00,VWS V14.01,2013-02-01 20:36:00,
2013-02-01 15:41:00,45.6,12.7,30.19,North,5,21.0,33.0,26,0.00,,---,0.00,VWS V14.01,2013-02-01 20:41:00,
2013-02-01 15:46:00,45.5,16.6,30.20,North,355,19.0,33.0,31,0.00,,---,0.00,VWS V14.01,2013-02-01 20:46:00,
2013-02-01 15:51:00,45.6,14.4,30.20,NW,325,23.0,33.0,28,0.00,,---,0.00,VWS V14.01,2013-02-01 20:51:00,
2013-02-01 15:56:00,45.5,15.9,30.21,North,5,21.0,33.0,30,0.00,,---,0.00,VWS V14.01,2013-02-01 20:56:00,
2013-02-01 16:01:00,45.4,14.2,30.21,NNW,337,14.0,22.0,28,0.00,,---,0.00,VWS V14.01,2013-02-01 21:01:00,
2013-02-01 16:06:00,45.3,16.5,30.22,NNW,332,23.0,24.0,31,0.00,,---,0.00,VWS V14.01,2013-02-01 21:06:00,
2013-02-01 16:11:00,45.4,17.3,30.22,NNW,340,20.0,31.0,32,0.00,,---,0.00,VWS V14.01,2013-02-01 21:11:00,
2013-02-01 16:16:00,45.0,16.9,30.22,North,355,21.0,31.0,32,0.00,,---,0.00,VWS V14.01,2013-02-01 21:16:00,
2013-02-01 16:21:00,45.0,14.7,30.22,North,355,22.0,31.0,29,0.00,,---,0.00,VWS V14.01,2013-02-01 21:21:00,
2013-02-01 16:26:00,44.9,16.8,30.22,North,360,16.0,31.0,32,0.00,,---,0.00,VWS V14.01,2013-02-01 21:26:00,
2013-02-01 16:32:00,44.5,14.2,30.23,North,351,21.0,27.0,29,0.00,,---,0.00,VWS V14.01,2013-02-01 21:32:00,
2013-02-01 16:37:00,44.4,16.4,30.23,North,355,18.0,27.0,32,0.00,,---,0.00,VWS V14.01,2013-02-01 21:37:00,
2013-02-01 16:41:00,44.4,16.4,30.24,NNW,345,24.0,27.0,32,0.00,,---,0.00,VWS V14.01,2013-02-01 21:41:00,
2013-02-01 16:47:00,44.3,14.1,30.24,North,355,19.0,27.0,29,0.00,,---,0.00,VWS V14.01,2013-02-01 21:47:00,
2013-02-01 16:52:00,44.2,17.6,30.24,North,351,15.0,27.0,34,0.00,,---,0.00,VWS V14.01,2013-02-01 21:52:00,
2013-02-01 16:57:00,44.1,16.9,30.24,North,351,14.0,27.0,33,0.00,,---,0.00,VWS V14.01,2013-02-01 21:57:00,
2013-02-01 17:02:00,44.0,14.6,30.25,North,5,19.0,20.0,30,0.00,,---,0.00,VWS V14.01,2013-02-01 22:02:00,
2013-02-01 17:07:00,43.7,14.3,30.25,NNW,340,16.0,25.0,30,0.00,,---,0.00,VWS V14.01,2013-02-01 22:07:00,
2013-02-01 17:12:00,43.4,14.8,30.25,North,360,17.0,25.0,31,0.00,,---,0.00,VWS V14.01,2013-02-01 22:12:00,
2013-02-01 17:17:00,43.3,14.0,30.25,NNW,346,19.0,25.0,30,0.00,,---,0.00,VWS V14.01,2013-02-01 22:17:00,
2013-02-01 17:22:00,43.1,14.5,30.25,North,355,14.0,25.0,31,0.00,,---,0.00,VWS V14.01,2013-02-01 22:22:00,
2013-02-01 17:27:00,42.9,15.1,30.25,North,355,15.0,25.0,32,0.00,,---,0.00,VWS V14.01,2013-02-01 22:27:00,
2013-02-01 17:32:00,42.6,16.2,30.25,North,355,17.0,21.0,34,0.00,,---,0.00,VWS V14.01,2013-02-01 22:32:00,
2013-02-01 17:37:00,42.3,13.8,30.26,North,5,15.0,21.0,31,0.00,,---,0.00,VWS V14.01,2013-02-01 22:37:00,
2013-02-01 17:42:00,42.1,15.8,30.26,NNW,346,13.0,21.0,34,0.00,,---,0.00,VWS V14.01,2013-02-01 22:42:00,
2013-02-01 17:47:00,41.9,16.3,30.26,North,355,13.0,21.0,35,0.00,,---,0.00,VWS V14.01,2013-02-01 22:47:00,
2013-02-01 17:52:00,41.6,16.0,30.27,North,355,10.0,21.0,35,0.00,,---,0.00,VWS V14.01,2013-02-01 22:52:00,
2013-02-01 17:57:00,41.2,16.9,30.27,North,351,6.0,21.0,37,0.00,,---,0.00,VWS V14.01,2013-02-01 22:57:00,
2013-02-01 18:02:00,41.0,17.4,30.27,North,360,8.0,9.0,38,0.00,,---,0.00,VWS V14.01,2013-02-01 23:02:00,
2013-02-01 18:07:00,40.8,16.6,30.27,NNE,23,9.0,12.0,37,0.00,,---,0.00,VWS V14.01,2013-02-01 23:07:00,
2013-02-01 18:12:00,40.5,16.9,30.28,North,5,11.0,12.0,38,0.00,,---,0.00,VWS V14.01,2013-02-01 23:12:00,
2013-02-01 18:17:00,40.1,16.5,30.28,North,5,9.0,13.0,38,0.00,,---,0.00,VWS V14.01,2013-02-01 23:17:00,
2013-02-01 18:22:00,39.9,15.8,30.28,North,360,9.0,13.0,37,0.00,,---,0.00,VWS V14.01,2013-02-01 23:22:00,
2013-02-01 18:27:00,39.7,18.0,30.28,North,360,10.0,13.0,41,0.00,,---,0.00,VWS V14.01,2013-02-01 23:27:00,
2013-02-01 18:32:00,39.5,16.6,30.29,North,5,9.0,10.0,39,0.00,,---,0.00,VWS V14.01,2013-02-01 23:32:00,
2013-02-01 18:37:00,39.2,17.5,30.29,North,11,8.0,10.0,41,0.00,,---,0.00,VWS V14.01,2013-02-01 23:37:00,
2013-02-01 18:42:00,39.0,17.3,30.29,North,355,7.0,10.0,41,0.00,,---,0.00,VWS V14.01,2013-02-01 23:42:00,
2013-02-01 18:48:00,39.0,18.4,30.30,North,360,7.0,10.0,43,0.00,,---,0.00,VWS V14.01,2013-02-01 23:48:00,
2013-02-01 18:53:00,38.8,17.1,30.30,North,360,6.0,10.0,41,0.00,,---,0.00,VWS V14.01,2013-02-01 23:53:00,
2013-02-01 18:58:00,38.5,16.9,30.30,North,5,10.0,11.0,41,0.00,,---,0.00,VWS V14.01,2013-02-01 23:58:00,
2013-02-01 19:03:00,38.3,17.2,30.30,North,9,10.0,11.0,42,0.00,,---,0.00,VWS V14.01,2013-02-02 00:03:00,
2013-02-01 19:08:00,38.1,17.0,30.30,NNE,13,8.0,12.0,42,0.00,,---,0.00,VWS V14.01,2013-02-02 00:08:00,
2013-02-01 19:13:00,38.1,16.5,30.31,NNE,28,5.0,13.0,41,0.00,,---,0.00,VWS V14.01,2013-02-02 00:13:00,
2013-02-01 19:18:00,38.0,17.5,30.32,NNE,24,10.0,13.0,43,0.00,,---,0.00,VWS V14.01,2013-02-02 00:18:00,
2013-02-01 19:23:00,38.0,17.0,30.32,North,10,8.0,13.0,42,0.00,,---,0.00,VWS V14.01,2013-02-02 00:23:00,
2013-02-01 19:28:00,37.9,18.0,30.32,North,9,6.0,9.0,44,0.00,,---,0.00,VWS V14.01,2013-02-02 00:28:00,
2013-02-01 19:33:00,37.6,16.6,30.32,North,5,6.0,9.0,42,0.00,,---,0.00,VWS V14.01,2013-02-02 00:33:00,
2013-02-01 19:38:00,37.5,17.0,30.32,North,360,7.0,10.0,43,0.00,,---,0.00,VWS V14.01,2013-02-02 00:38:00,
2013-02-01 19:43:00,37.4,15.9,30.32,North,360,7.0,11.0,41,0.00,,---,0.00,VWS V14.01,2013-02-02 00:43:00,
2013-02-01 19:48:00,37.3,15.2,30.33,North,360,8.0,12.0,40,0.00,,---,0.00,VWS V14.01,2013-02-02 00:48:00,
2013-02-01 19:53:00,37.3,16.3,30.33,North,9,8.0,12.0,42,0.00,,---,0.00,VWS V14.01,2013-02-02 00:53:00,
2013-02-01 19:58:00,37.1,16.7,30.33,North,10,9.0,10.0,43,0.00,,---,0.00,VWS V14.01,2013-02-02 00:58:00,
2013-02-01 20:03:00,36.9,16.0,30.33,North,5,7.0,10.0,42,0.00,,---,0.00,VWS V14.01,2013-02-02 01:03:00,
2013-02-01 20:08:00,36.7,16.9,30.33,North,5,7.0,10.0,44,0.00,,---,0.00,VWS V14.01,2013-02-02 01:08:00,
2013-02-01 20:13:00,36.5,17.2,30.33,North,360,6.0,10.0,45,0.00,,---,0.00,VWS V14.01,2013-02-02 01:13:00,
2013-02-01 20:18:00,36.4,17.6,30.33,North,351,7.0,10.0,46,0.00,,---,0.00,VWS V14.01,2013-02-02 01:18:00,
2013-02-01 20:23:00,36.1,18.3,30.33,North,355,7.0,10.0,48,0.00,,---,0.00,VWS V14.01,2013-02-02 01:23:00,
2013-02-01 20:28:00,36.1,17.8,30.33,North,360,6.0,7.0,47,0.00,,---,0.00,VWS V14.01,2013-02-02 01:28:00,
2013-02-01 20:33:00,36.1,17.8,30.34,North,11,7.0,9.0,47,0.00,,---,0.00,VWS V14.01,2013-02-02 01:33:00,
2013-02-01 20:38:00,35.9,17.6,30.34,North,360,7.0,10.0,47,0.00,,---,0.00,VWS V14.01,2013-02-02 01:38:00,
2013-02-01 20:43:00,35.5,17.3,30.35,North,360,6.0,10.0,47,0.00,,---,0.00,VWS V14.01,2013-02-02 01:43:00,
2013-02-01 20:48:00,35.6,19.3,30.35,North,360,5.0,10.0,51,0.00,,---,0.00,VWS V14.01,2013-02-02 01:48:00,
2013-02-01 20:53:00,35.3,17.6,30.35,North,355,5.0,10.0,48,0.00,,---,0.00,VWS V14.01,2013-02-02 01:53:00,
2013-02-01 20:58:00,35.2,18.9,30.35,North,9,6.0,6.0,51,0.00,,---,0.00,VWS V14.01,2013-02-02 01:58:00,
2013-02-01 21:03:00,35.2,18.0,30.35,North,5,7.0,8.0,49,0.00,,---,0.00,VWS V14.01,2013-02-02 02:03:00,
2013-02-01 21:08:00,35.2,18.9,30.35,North,355,6.0,8.0,51,0.00,,---,0.00,VWS V14.01,2013-02-02 02:08:00,
2013-02-01 21:13:00,34.8,17.6,30.35,North,355,7.0,8.0,49,0.00,,---,0.00,VWS V14.01,2013-02-02 02:13:00,
2013-02-01 21:18:00,34.9,18.6,30.36,North,5,5.0,9.0,51,0.00,,---,0.00,VWS V14.01,2013-02-02 02:18:00,
2013-02-01 21:23:00,34.8,18.1,30.36,North,5,5.0,9.0,50,0.00,,---,0.00,VWS V14.01,2013-02-02 02:23:00,
2013-02-01 21:28:00,34.6,17.9,30.36,North,5,6.0,7.0,50,0.00,,---,0.00,VWS V14.01,2013-02-02 02:28:00,
2013-02-01 21:33:00,34.7,20.2,30.36,North,360,5.0,7.0,55,0.00,,---,0.00,VWS V14.01,2013-02-02 02:33:00,
2013-02-01 21:38:00,34.6,18.3,30.36,North,360,6.0,9.0,51,0.00,,---,0.00,VWS V14.01,2013-02-02 02:38:00,
2013-02-01 21:44:00,34.9,19.5,30.36,North,5,7.0,10.0,53,0.00,,---,0.00,VWS V14.01,2013-02-02 02:44:00,
2013-02-01 21:49:00,35.0,19.6,30.37,North,9,6.0,10.0,53,0.00,,---,0.00,VWS V14.01,2013-02-02 02:49:00,
2013-02-01 21:54:00,34.9,18.2,30.37,North,350,6.0,10.0,50,0.00,,---,0.00,VWS V14.01,2013-02-02 02:54:00,
2013-02-01 21:59:00,34.7,18.9,30.37,North,355,7.0,7.0,52,0.00,,---,0.00,VWS V14.01,2013-02-02 02:59:00,
2013-02-01 22:04:00,34.8,18.5,30.37,North,5,7.0,9.0,51,0.00,,---,0.00,VWS V14.01,2013-02-02 03:04:00,
2013-02-01 22:09:00,35.0,20.0,30.37,North,5,7.0,9.0,54,0.00,,---,0.00,VWS V14.01,2013-02-02 03:09:00,
2013-02-01 22:14:00,34.6,17.4,30.37,North,5,7.0,10.0,49,0.00,,---,0.00,VWS V14.01,2013-02-02 03:14:00,
2013-02-01 22:19:00,34.3,17.1,30.37,North,5,8.0,10.0,49,0.00,,---,0.00,VWS V14.01,2013-02-02 03:19:00,
2013-02-01 22:24:00,34.1,16.5,30.38,North,5,6.0,10.0,48,0.00,,---,0.00,VWS V14.01,2013-02-02 03:24:00,
2013-02-01 22:29:00,34.1,17.9,30.37,NNE,15,6.0,9.0,51,0.00,,---,0.00,VWS V14.01,2013-02-02 03:29:00,
2013-02-01 22:34:00,34.1,17.4,30.37,North,5,9.0,10.0,50,0.00,,---,0.00,VWS V14.01,2013-02-02 03:34:00,
2013-02-01 22:39:00,34.1,18.8,30.37,NNE,18,8.0,11.0,53,0.00,,---,0.00,VWS V14.01,2013-02-02 03:39:00,
2013-02-01 22:44:00,34.0,17.3,30.38,NNE,25,9.0,11.0,50,0.00,,---,0.00,VWS V14.01,2013-02-02 03:44:00,
2013-02-01 22:49:00,34.0,18.2,30.37,North,5,6.0,11.0,52,0.00,,---,0.00,VWS V14.01,2013-02-02 03:49:00,
2013-02-01 22:54:00,34.0,18.2,30.37,NNE,19,8.0,11.0,52,0.00,,---,0.00,VWS V14.01,2013-02-02 03:54:00,
2013-02-01 22:59:00,33.9,17.2,30.38,North,5,6.0,9.0,50,0.00,,---,0.00,VWS V14.01,2013-02-02 03:59:00,
2013-02-01 23:04:00,33.9,17.2,30.38,North,5,6.0,9.0,50,0.00,,---,0.00,VWS V14.01,2013-02-02 04:04:00,
2013-02-01 23:09:00,33.9,18.1,30.38,North,9,6.0,9.0,52,0.00,,---,0.00,VWS V14.01,2013-02-02 04:09:00,
2013-02-01 23:14:00,33.8,17.6,30.37,North,5,7.0,10.0,51,0.00,,---,0.00,VWS V14.01,2013-02-02 04:14:00,
2013-02-01 23:19:00,33.7,18.0,30.37,North,10,9.0,10.0,52,0.00,,---,0.00,VWS V14.01,2013-02-02 04:19:00,
2013-02-01 23:25:00,33.7,17.0,30.38,North,5,7.0,10.0,50,0.00,,---,0.00,VWS V14.01,2013-02-02 04:25:00,
2013-02-01 23:30:00,33.9,18.1,30.38,North,5,10.0,10.0,52,0.00,,---,0.00,VWS V14.01,2013-02-02 04:30:00,
2013-02-01 23:35:00,33.7,18.0,30.38,NNE,16,9.0,12.0,52,0.00,,---,0.00,VWS V14.01,2013-02-02 04:35:00,
2013-02-01 23:40:00,33.8,18.5,30.38,NNE,32,10.0,12.0,53,0.00,,---,0.00,VWS V14.01,2013-02-02 04:40:00,
2013-02-01 23:45:00,33.8,16.7,30.38,NNE,22,11.0,12.0,49,0.00,,---,0.00,VWS V14.01,2013-02-02 04:45:00,
2013-02-01 23:50:00,33.6,17.4,30.38,NNE,22,9.0,12.0,51,0.00,,---,0.00,VWS V14.01,2013-02-02 04:50:00,
2013-02-01 23:55:00,33.7,18.4,30.38,NE,36,11.0,15.0,53,0.00,,---,0.00,VWS V14.01,2013-02-02 04:55:00,